DW0110 Weather Reports


Display with metric or nautical units.
time (UTC)temp
F
wind
direction
speed
MPH
gust
MPH
rain 1hr
in
rain 24hr
in
rain mn
in
humidity
%
barometer
mb
20260507040321 43 233 0.0 0.0 0.00 0.00 0.00 86 1012.3
20260507035833 43 233 0.0 0.0 0.00 0.00 0.00 86 1012.3
20260507035349 43 233 0.0 0.0 0.00 0.00 0.00 86 1012.4
20260507034822 43 233 0.0 0.0 0.00 0.00 0.00 86 1012.4
20260507034336 43 233 0.0 0.0 0.00 0.00 0.00 86 1012.3
20260507033829 43 233 0.0 0.0 0.00 0.00 0.00 86 1012.2
20260507033323 43 233 0.0 0.0 0.00 0.00 0.00 86 1012.3
20260507032837 43 233 0.0 0.0 0.00 0.00 0.00 86 1012.2
20260507032334 43 233 0.0 5.0 0.00 0.00 0.00 86 1012.2
20260507031829 43 233 1.0 5.0 0.00 0.00 0.00 86 1012.1
20260507031400 43 233 0.0 0.0 0.00 0.00 0.00 86 1012.0
20260507030831 43 233 0.0 0.0 0.00 0.00 0.00 86 1012.1
20260507030323 43 233 0.0 0.0 0.00 0.00 0.00 86 1012.1
20260507025836 43 233 0.0 0.0 0.00 0.00 0.00 86 1011.9
20260507025329 43 233 0.0 0.0 0.00 0.00 0.00 87 1011.9
20260507024823 43 233 0.0 0.0 0.00 0.00 0.00 86 1011.9
20260507024337 43 233 0.0 0.0 0.00 0.00 0.00 86 1012.0
20260507023830 43 233 0.0 0.0 0.00 0.00 0.00 87 1012.0
20260507023323 43 233 0.0 0.0 0.00 0.00 0.00 87 1012.1
20260507022837 43 233 0.0 0.0 0.00 0.00 0.00 87 1011.9
20260507022331 43 233 0.0 0.0 0.00 0.00 0.00 87 1011.9
20260507021824 43 233 0.0 0.0 0.00 0.00 0.00 87 1011.9
20260507021400 43 233 0.0 0.0 0.00 0.00 0.00 87 1012.0
20260507020834 43 233 0.0 0.0 0.00 0.00 0.00 87 1012.1
20260507020327 43 233 0.0 0.0 0.00 0.00 0.00 87 1012.3
20260507015842 43 233 0.0 0.0 0.00 0.00 0.00 87 1012.2
20260507015356 43 233 0.0 0.0 0.00 0.00 0.00 87 1012.1
20260507014828 44 233 0.0 0.0 0.00 0.00 0.00 87 1012.1
20260507014322 44 233 0.0 0.0 0.00 0.00 0.00 87 1012.0
20260507013858 44 233 0.0 0.0 0.00 0.00 0.00 87 1011.9
20260507013349 44 233 0.0 0.0 0.00 0.00 0.00 88 1012.0
20260507012821 44 233 0.0 0.0 0.00 0.00 0.00 88 1012.1
20260507012332 44 233 0.0 5.0 0.00 0.00 0.00 88 1012.2
20260507011848 44 233 1.0 5.0 0.00 0.00 0.00 88 1012.2
20260507011339 44 233 0.0 5.0 0.00 0.00 0.00 88 1012.1
20260507010854 44 233 0.0 6.0 0.00 0.00 0.00 88 1012.1
20260507010328 44 233 1.0 6.0 0.00 0.00 0.00 88 1011.9
20260507005824 45 233 0.0 6.0 0.00 0.00 0.00 88 1011.7
20260507005317 45 233 2.0 6.0 0.00 0.00 0.00 88 1011.7
20260507004834 45 233 0.0 0.0 0.00 0.00 0.00 88 1011.3
20260507004327 45 233 0.0 0.0 0.00 0.00 0.00 88 1011.3
20260507003821 45 233 0.0 4.0 0.00 0.00 0.00 88 1011.2
20260507003336 45 233 0.0 4.0 0.00 0.00 0.00 89 1011.1
20260507002851 45 233 0.0 6.0 0.00 0.00 0.00 89 1011.2
20260507002324 45 233 1.0 6.0 0.00 0.00 0.00 89 1011.2
20260507001840 46 233 2.0 8.0 0.00 0.00 0.00 89 1011.1
20260507001334 47 233 4.0 8.0 0.00 0.00 0.00 89 1010.9
20260507000824 47 233 0.0 0.0 0.00 0.00 0.00 88 1010.7
20260507000400 48 233 0.0 0.0 0.00 0.00 0.00 89 1010.7
20260506235832 48 233 0.0 0.0 0.00 0.00 0.00 89 1010.6
20260506235324 48 233 0.0 0.0 0.00 0.00 0.00 89 1010.6
20260506234835 48 233 0.0 0.0 0.00 0.00 0.00 89 1010.5
20260506234335 48 233 0.0 0.0 0.00 0.00 0.00 89 1010.6
20260506233823 48 233 0.0 0.0 0.00 0.00 0.00 89 1010.5
20260506233339 49 233 0.0 0.0 0.00 0.00 0.00 89 1010.4
20260506232833 49 233 0.0 0.0 0.00 0.00 0.00 88 1010.2
20260506232325 49 233 0.0 0.0 0.00 0.00 0.00 88 1010.1
20260506231901 49 233 0.0 0.0 0.00 0.00 0.00 88 1010.1
20260506231333 49 233 0.0 0.0 0.00 0.00 0.00 88 1010.0
20260506230827 49 233 0.0 0.0 0.00 0.00 0.00 88 1009.9
20260506230355 49 233 0.0 0.0 0.00 0.00 0.00 88 1009.9
20260506225827 49 233 0.0 0.0 0.00 0.00 0.00 88 1009.9
20260506225320 49 233 0.0 0.0 0.00 0.00 0.00 88 1009.9
20260506224834 49 233 0.0 0.0 0.00 0.00 0.00 88 1010.0
20260506224327 49 233 0.0 0.0 0.00 0.00 0.00 88 1009.9
20260506223821 49 233 0.0 0.0 0.00 0.00 0.00 88 1009.7
20260506223335 49 233 0.0 0.0 0.00 0.00 0.00 88 1009.7
20260506222831 49 233 0.0 0.0 0.00 0.00 0.00 88 1009.8
20260506222325 49 233 0.0 0.0 0.00 0.00 0.00 88 1009.8
20260506221838 49 233 0.0 0.0 0.00 0.00 0.00 88 1009.7
20260506221331 49 233 0.0 0.0 0.00 0.00 0.00 88 1009.6
20260506220827 49 233 0.0 0.0 0.00 0.00 0.00 88 1009.8
20260506220325 49 233 0.0 0.0 0.00 0.00 0.00 88 1009.7
20260506215838 49 233 0.0 0.0 0.00 0.00 0.00 88 1009.6
20260506215350 49 233 0.0 0.0 0.00 0.00 0.00 88 1009.5
20260506214822 49 233 0.0 0.0 0.00 0.00 0.00 88 1009.3
20260506214338 49 233 0.0 0.0 0.00 0.00 0.00 88 1009.6
20260506213830 50 233 0.0 0.0 0.00 0.00 0.00 88 1009.6
20260506213323 49 233 0.0 0.0 0.00 0.00 0.00 88 1009.7
20260506212839 49 233 0.0 0.0 0.00 0.00 0.00 88 1009.8
20260506212354 49 233 0.0 0.0 0.00 0.00 0.00 88 1009.7
20260506211826 49 233 0.0 0.0 0.00 0.00 0.00 89 1009.8
20260506211318 49 233 0.0 0.0 0.00 0.00 0.00 89 1009.7
20260506210833 49 233 0.0 0.0 0.00 0.00 0.00 89 1009.7
20260506210325 49 233 0.0 0.0 0.00 0.00 0.00 89 1009.7
20260506205842 49 233 0.0 0.0 0.00 0.00 0.00 88 1009.7
20260506205334 49 233 0.0 0.0 0.00 0.00 0.00 88 1009.6
20260506204830 49 233 0.0 0.0 0.00 0.00 0.00 87 1009.6
20260506204346 49 233 0.0 0.0 0.00 0.00 0.00 86 1009.5
20260506203838 49 233 0.0 0.0 0.00 0.00 0.00 85 1009.6
20260506203330 49 233 0.0 0.0 0.00 0.00 0.00 85 1009.6
20260506202845 49 233 0.0 0.0 0.00 0.00 0.00 84 1009.5
20260506202337 49 233 0.0 0.0 0.00 0.00 0.00 83 1009.6
20260506201830 48 233 0.0 0.0 0.00 0.00 0.00 83 1009.6
20260506201327 48 233 0.0 0.0 0.00 0.00 0.00 83 1009.6
20260506200822 48 233 0.0 0.0 0.00 0.00 0.00 82 1009.7
20260506200337 48 233 0.0 0.0 0.00 0.00 0.00 82 1009.8
20260506195830 48 233 0.0 0.0 0.00 0.00 0.00 82 1009.8
20260506195323 48 233 0.0 0.0 0.00 0.00 0.00 82 1009.8
20260506194836 48 233 0.0 0.0 0.00 0.00 0.00 82 1009.7
20260506194333 48 233 0.0 0.0 0.00 0.00 0.00 82 1009.5
20260506193827 47 233 0.0 0.0 0.00 0.00 0.00 82 1009.5
20260506193323 47 233 0.0 0.0 0.00 0.00 0.00 82 1009.6
20260506192831 48 233 0.0 0.0 0.00 0.00 0.00 81 1009.6
20260506192321 48 233 0.0 0.0 0.00 0.00 0.00 81 1009.5
20260506191834 48 233 0.0 0.0 0.00 0.00 0.00 81 1009.5
20260506191328 47 233 0.0 0.0 0.00 0.00 0.00 81 1009.6
20260506190843 47 233 0.0 0.0 0.00 0.00 0.00 82 1009.7
20260506190338 47 233 0.0 0.0 0.00 0.00 0.00 82 1009.7
20260506185832 47 233 0.0 0.0 0.00 0.00 0.00 81 1009.7
20260506185324 47 233 0.0 4.0 0.00 0.00 0.00 82 1009.7
20260506184838 47 233 0.0 4.0 0.00 0.00 0.00 81 1009.8
20260506184332 47 233 0.0 0.0 0.00 0.00 0.00 81 1009.6
20260506183825 47 233 0.0 0.0 0.00 0.00 0.00 81 1009.6
20260506183342 47 233 0.0 2.0 0.00 0.00 0.00 81 1009.6
20260506182838 47 233 0.0 2.0 0.00 0.00 0.00 81 1009.8
20260506182330 47 233 0.0 0.0 0.00 0.00 0.00 81 1009.6
20260506181823 47 233 0.0 0.0 0.00 0.00 0.00 81 1009.6
20260506181337 47 233 0.0 0.0 0.00 0.00 0.00 82 1009.8
20260506180852 46 233 0.0 0.0 0.00 0.00 0.00 82 1009.8
20260506180325 46 233 0.0 0.0 0.00 0.00 0.00 82 1009.9
20260506175836 46 233 0.0 0.0 0.00 0.00 0.00 82 1010.0
20260506175330 47 233 0.0 0.0 0.00 0.00 0.00 81 1009.7
20260506174845 47 233 0.0 0.0 0.00 0.00 0.00 81 1009.6
20260506174338 47 233 0.0 0.0 0.00 0.00 0.00 81 1009.5
20260506173832 47 233 0.0 0.0 0.00 0.00 0.00 81 1009.3
20260506173325 47 233 0.0 0.0 0.00 0.00 0.00 81 1009.3
20260506172840 47 233 0.0 0.0 0.00 0.00 0.00 81 1009.2
20260506172352 47 233 0.0 0.0 0.00 0.00 0.00 81 1009.2
20260506171828 47 233 0.0 0.0 0.00 0.00 0.00 81 1009.0
20260506171322 47 233 0.0 0.0 0.00 0.00 0.00 81 1009.0
20260506170838 47 233 0.0 0.0 0.00 0.00 0.00 81 1008.9
20260506170327 47 233 0.0 0.0 0.00 0.00 0.00 81 1009.0
20260506165821 47 233 0.0 0.0 0.00 0.00 0.00 81 1009.0
20260506165334 47 233 0.0 0.0 0.00 0.00 0.00 81 1009.0
20260506164828 47 233 0.0 0.0 0.00 0.00 0.00 81 1008.9
20260506164324 47 233 0.0 0.0 0.00 0.00 0.00 81 1009.1
20260506163835 47 233 0.0 0.0 0.00 0.00 0.00 81 1009.0
20260506163326 47 233 0.0 0.0 0.00 0.00 0.00 81 1008.9
20260506162839 47 233 0.0 0.0 0.00 0.00 0.00 81 1008.9
20260506162330 47 233 0.0 0.0 0.00 0.00 0.00 81 1008.8
20260506161842 47 233 0.0 0.0 0.00 0.00 0.00 81 1009.0
20260506161340 47 233 0.0 0.0 0.00 0.00 0.00 81 1008.9
20260506160833 46 233 0.0 0.0 0.00 0.00 0.00 81 1008.8
20260506160327 46 233 0.0 0.0 0.00 0.00 0.00 82 1009.0
20260506155819 46 233 0.0 0.0 0.00 0.00 0.00 82 1009.1
20260506155334 46 233 0.0 0.0 0.00 0.00 0.00 81 1009.0
20260506154825 46 233 0.0 0.0 0.00 0.00 0.00 82 1009.1
20260506154322 46 233 0.0 0.0 0.00 0.00 0.00 81 1009.1
20260506153835 46 233 0.0 0.0 0.00 0.00 0.00 81 1009.1
20260506153331 46 233 0.0 0.0 0.00 0.00 0.00 81 1008.9
20260506152825 46 233 0.0 0.0 0.00 0.00 0.00 82 1008.8
20260506152339 46 233 0.0 0.0 0.00 0.00 0.00 81 1008.9
20260506151832 46 233 0.0 0.0 0.00 0.00 0.00 81 1008.8
20260506151326 46 233 0.0 0.0 0.00 0.00 0.00 81 1008.8
20260506150823 46 233 0.0 0.0 0.00 0.00 0.00 81 1008.9
20260506150336 46 233 0.0 0.0 0.00 0.00 0.00 81 1008.9
20260506145852 46 233 0.0 0.0 0.00 0.00 0.00 81 1008.9
20260506145325 46 233 0.0 0.0 0.00 0.00 0.00 81 1008.8
20260506144840 46 233 0.0 0.0 0.00 0.00 0.00 82 1008.7
20260506144352 46 233 0.0 0.0 0.00 0.00 0.00 82 1008.7
20260506143825 46 233 0.0 0.0 0.00 0.00 0.00 82 1008.6
20260506143340 46 233 0.0 0.0 0.00 0.00 0.00 82 1008.5
20260506142832 46 233 0.0 0.0 0.00 0.00 0.00 82 1008.5
20260506142324 46 233 0.0 0.0 0.00 0.00 0.00 82 1008.5
20260506141839 46 233 0.0 0.0 0.00 0.00 0.00 81 1008.4
20260506141333 46 233 0.0 0.0 0.00 0.00 0.00 81 1008.4
20260506140827 46 233 0.0 0.0 0.00 0.00 0.00 82 1008.4
20260506140321 46 233 0.0 0.0 0.00 0.00 0.00 82 1008.4
20260506135838 46 233 0.0 0.0 0.00 0.00 0.00 82 1008.5
20260506135331 46 233 0.0 0.0 0.00 0.00 0.00 82 1008.6
20260506134828 46 233 0.0 0.0 0.00 0.00 0.00 82 1008.6
20260506134322 46 233 0.0 0.0 0.00 0.00 0.00 82 1008.5
20260506133837 46 233 0.0 0.0 0.00 0.00 0.00 82 1008.5
20260506133331 46 233 0.0 0.0 0.00 0.00 0.00 82 1008.5
20260506132824 45 233 0.0 0.0 0.00 0.00 0.00 82 1008.4
20260506132400 45 233 0.0 0.0 0.00 0.00 0.00 82 1008.3
20260506131834 45 233 0.0 0.0 0.00 0.00 0.00 82 1008.3
20260506131327 45 233 0.0 1.0 0.00 0.00 0.00 82 1008.2
20260506130821 45 233 0.0 1.0 0.00 0.00 0.00 82 1008.2
20260506130335 45 233 0.0 0.0 0.00 0.00 0.00 82 1008.2
20260506125827 45 233 0.0 0.0 0.00 0.00 0.00 82 1008.3
20260506125342 45 233 0.0 0.0 0.00 0.00 0.00 82 1008.2
20260506124839 45 233 0.0 0.0 0.00 0.00 0.00 82 1008.3
20260506124355 45 233 0.0 0.0 0.00 0.00 0.00 82 1008.3
20260506123830 45 233 0.0 0.0 0.00 0.00 0.00 82 1008.5
20260506123345 45 233 0.0 0.0 0.00 0.00 0.00 82 1008.5
20260506122821 45 233 0.0 0.0 0.00 0.00 0.00 82 1008.4
20260506122330 45 233 0.0 0.0 0.00 0.00 0.00 82 1008.4
20260506121845 45 233 0.0 0.0 0.00 0.00 0.00 82 1008.3
20260506121338 45 233 0.0 0.0 0.00 0.00 0.00 82 1008.5
20260506120830 45 233 0.0 0.0 0.00 0.00 0.00 82 1008.4
20260506120321 45 233 0.0 0.0 0.00 0.00 0.00 82 1008.5
20260506115833 45 233 0.0 0.0 0.00 0.00 0.00 82 1008.6
20260506115323 45 233 0.0 0.0 0.00 0.00 0.00 82 1008.5
20260506114836 45 233 0.0 0.0 0.00 0.00 0.00 82 1008.4
20260506114352 45 233 0.0 0.0 0.00 0.00 0.00 82 1008.4
20260506113825 45 233 0.0 0.0 0.00 0.00 0.00 82 1008.3
20260506113337 45 233 0.0 0.0 0.00 0.00 0.00 82 1008.0
20260506112832 45 233 0.0 0.0 0.00 0.00 0.00 82 1008.2
20260506112326 45 233 0.0 0.0 0.00 0.00 0.00 82 1008.1
20260506111820 45 233 0.0 0.0 0.00 0.00 0.00 82 1008.0
20260506111356 45 233 0.0 0.0 0.00 0.00 0.00 82 1007.9
20260506110830 45 233 0.0 0.0 0.00 0.00 0.00 82 1008.0
20260506110325 45 233 0.0 0.0 0.00 0.00 0.00 82 1008.0
20260506105838 45 233 0.0 0.0 0.00 0.00 0.00 82 1007.9
20260506105354 45 233 0.0 0.0 0.00 0.00 0.00 82 1008.0
20260506104827 45 233 0.0 0.0 0.00 0.00 0.00 82 1008.3
20260506104320 45 233 0.0 0.0 0.00 0.00 0.00 82 1008.3
20260506103838 46 233 0.0 0.0 0.00 0.00 0.00 82 1008.3
20260506103333 46 233 0.0 0.0 0.00 0.00 0.00 82 1008.3
20260506102826 46 233 0.0 0.0 0.00 0.00 0.00 82 1008.3
20260506102342 46 233 0.0 0.0 0.00 0.00 0.00 82 1008.3
20260506101831 46 233 0.0 0.0 0.00 0.00 0.00 82 1008.6
20260506101322 46 233 0.0 0.0 0.00 0.00 0.00 82 1008.6
20260506100836 46 233 0.0 0.0 0.00 0.00 0.00 82 1008.6
20260506100330 46 233 0.0 0.0 0.00 0.00 0.00 82 1008.3
20260506095823 46 233 0.0 0.0 0.00 0.00 0.00 82 1008.3
20260506095359 46 233 0.0 0.0 0.00 0.00 0.00 82 1008.3
20260506094832 46 233 0.0 0.0 0.00 0.00 0.00 82 1008.3
20260506094325 46 233 0.0 0.0 0.00 0.00 0.00 82 1008.4
20260506093818 46 233 0.0 0.0 0.00 0.00 0.00 82 1008.4
20260506093334 46 233 0.0 0.0 0.00 0.00 0.00 82 1008.1
20260506092828 46 233 0.0 0.0 0.00 0.00 0.00 82 1008.1
20260506092326 46 233 0.0 0.0 0.00 0.00 0.00 82 1008.3
20260506091820 46 233 0.0 0.0 0.00 0.00 0.00 82 1008.0
20260506091334 46 233 0.0 0.0 0.00 0.00 0.00 82 1007.8
20260506090827 46 233 0.0 0.0 0.00 0.00 0.00 82 1007.7
20260506090321 46 233 0.0 0.0 0.00 0.00 0.00 82 1007.7
20260506085855 46 233 0.0 0.0 0.00 0.00 0.00 82 1008.0
20260506085350 46 233 0.0 0.0 0.00 0.00 0.00 82 1008.0
20260506084822 46 233 0.0 0.0 0.00 0.00 0.00 82 1008.3
20260506084335 46 233 0.0 0.0 0.00 0.00 0.00 82 1008.5
20260506083829 46 233 0.0 0.0 0.00 0.00 0.00 82 1008.5
20260506083324 46 233 0.0 0.0 0.00 0.00 0.00 82 1008.4
20260506082837 46 233 0.0 1.0 0.00 0.00 0.00 82 1008.1
20260506082353 46 233 0.0 1.0 0.00 0.00 0.00 82 1008.0
20260506081826 47 233 0.0 0.0 0.00 0.00 0.00 82 1008.3
20260506081319 47 233 0.0 0.0 0.00 0.00 0.00 82 1008.5
20260506080835 47 233 0.0 0.0 0.00 0.00 0.00 82 1008.5
20260506080329 47 233 0.0 0.0 0.00 0.00 0.00 82 1008.4
20260506073335 47 233 0.0 0.0 0.00 0.00 0.00 82 1008.4
20260506072826 47 233 0.0 0.0 0.00 0.00 0.00 82 1008.5
20260506072339 47 233 0.0 0.0 0.00 0.00 0.00 82 1008.4
20260506071857 47 233 0.0 0.0 0.00 0.00 0.00 82 1008.1
20260506071330 47 233 0.0 2.0 0.00 0.00 0.00 82 1008.1
20260506070823 48 233 0.0 2.0 0.00 0.00 0.00 82 1008.2
20260506070337 48 233 0.0 0.0 0.00 0.00 0.00 82 1008.3
20260506062321 48 233 0.0 0.0 0.00 0.00 0.00 82 1008.8
20260506061832 48 233 0.0 0.0 0.00 0.00 0.00 82 1008.7
20260506061324 48 233 0.0 0.0 0.00 0.00 0.00 82 1008.7
20260506060836 48 233 0.0 0.0 0.00 0.00 0.00 82 1008.8
20260506060326 48 233 0.0 0.0 0.00 0.00 0.00 82 1008.6
20260506051340 48 233 0.0 0.0 0.00 0.00 0.00 82 1009.2
20260506050834 48 233 0.0 0.0 0.00 0.00 0.00 83 1009.3
20260506050328 48 233 0.0 0.0 0.00 0.00 0.00 83 1009.3
20260506044851 48 233 0.0 0.0 0.00 0.00 0.00 83 1009.2
20260506044324 48 233 0.0 0.0 0.00 0.00 0.00 83 1009.2
20260506043838 48 233 0.0 0.0 0.00 0.00 0.00 83 1009.3
20260506043331 48 233 0.0 0.0 0.00 0.00 0.00 83 1009.2
20260506042828 48 233 0.0 0.0 0.00 0.00 0.00 83 1009.2
20260506042321 48 233 0.0 0.0 0.00 0.00 0.00 83 1009.1
20260506041832 48 233 0.0 0.0 0.00 0.00 0.00 83 1008.8
20260506041323 48 233 0.0 0.0 0.00 0.00 0.00 83 1008.8
20260506040834 48 233 0.0 0.0 0.00 0.00 0.00 83 1008.8